Regional Weather Roundup
Issued by NWS Cleveland, OH

Home | Current Version | Previous Version | Graphics & Text | Print | Product List | Glossary On
Versions: 1 2 3 4 5 6 7 8 9 10 11 12 13 14 15 16 17 18 19 20 21 22 23 24 25 26 27 28 29 30 31 32 33 34 35 36 37 38 39 40 41 42 43 44 45 46 47 48 49 50
000
ASUS41 KCLE 242310
RWRCLE
OHIO REGIONAL WEATHER ROUNDUP
NATIONAL WEATHER SERVICE WILMINGTON, OH
700 PM EDT FRI APR 24 2015

NOTE: "FAIR" INDICATES FEW OR NO CLOUDS BELOW 12,000 FEET WITH NO
SIGNIFICANT WEATHER AND/OR OBSTRUCTIONS TO VISIBILITY.

OHZ001>008-015>018-024>027-034-035-043-044-250000-
   NORTHWEST OHIO

CITY           SKY/WX    TMP DP  RH WIND       PRES   REMARKS
DEFIANCE       PTSUNNY   59  20  22 W3        29.97S
FINDLAY        MOSUNNY   58  22  24 W6        29.96F
TOLEDO EXPRESS SUNNY     58  20  22 NW3       29.97S
TOLEDO EXEC    SUNNY     58  21  24 W6        29.98F
LIMA           PTSUNNY   57  23  26 W6        29.96F
$$

OHZ009>014-019>023-028>033-038-089-250000-
   NORTHEAST OHIO

CITY           SKY/WX    TMP DP  RH WIND       PRES   REMARKS
CLE-HOPKINS    SUNNY     48  24  39 NE6       30.02F
CLE-LAKEFRONT  SUNNY     47  25  42 NE7       30.01F
CUY CO. ARPT   MOSUNNY   50  25  37 N9        30.02F
LORAIN-ELYRIA  SUNNY     51  25  36 NE6       30.00F
ASHTABULA      SUNNY     45  19  35 VRB5      30.03F
AKRON-CANTON   PTSUNNY   54  17  23 CALM      29.98F
WOOSTER        LGT RAIN  54  27  35 NW8       29.98F
MANSFIELD      MOSUNNY   55  22  27 VRB6      29.97F
YOUNGSTOWN     MOSUNNY   48  19  31 NW14      30.01S
$$

OHZ042-051>053-060>062-070>072-077>081-250000-
  SOUTHWEST OHIO

CITY           SKY/WX    TMP DP  RH WIND       PRES   REMARKS
CINC-COVINGTON CLOUDY    58  31  35 S7        29.97F
CINC-LUNKEN    PTSUNNY   58  32  37 SE3       29.98F
HAMILTON       PTSUNNY   61  26  26 SE5       29.98F
DAYTON         CLOUDY    58  29  33 S7        29.98F
WRIGHT-PAT AFB PTSUNNY   58  25  28 VRB6      29.98S
DAYTON GENERAL PTSUNNY   57  27  31 S6        29.98S
WILMINGTON     PTSUNNY   56  27  32 S6        29.99S
$$

OHZ036-037-039>041-045>050-054>059-063>069-073>076-082>088-250000-
  CENTRAL AND SOUTHEAST OHIO

CITY           SKY/WX    TMP DP  RH WIND       PRES   REMARKS
COLUMBUS       CLOUDY    56  25  30 NW3       29.98F
OSU AIRPORT    CLOUDY    56  24  29 NW5       29.98F
BOLTON FIELD   SUNNY     57  25  28 NW3       29.99S
RICKENBACK AFB CLOUDY    56  27  33 CALM      29.98S
NEWARK         PTSUNNY   57  27  31 CALM      29.97F
MARION         PTSUNNY   56  23  27 W3        29.98F
LANCASTER      CLOUDY    55  30  38 W3        29.98F
ZANESVILLE     PTSUNNY   54  23  30 SW6       29.98F
NEW PHILLY     SUNNY     57  24  28 N5        29.99F
$$



USA.gov is the U.S. government's official web portal to all federal, state and local government web resources and services.